SCP
-0 -0 -0 -0 0 0 0 0 0 0 0 0 0 0 0 0 0 0 0 0 0 0
0 0 0 0 0 0 0 0 0 0 0 0 0 0 0 0 0 0 0 0 0 0
0 0 0 0 0 0 0 0 0 0 0 0 0 0 0 0 0 0 0 0 0 0
0 0 0 0 0 0 0 0 0 0 0 0 0 0 0 0 0 0 0 0 0 0
0 0 0 0 0 0 0 0 0 0 0 0 0 0 0 0 0 0 0 0 0 0
0 0 0 0 0 0 0 0 0 0 0 0 0 0 0 0 0 0 0 0 0 0
0 0 0 0 0 0 0 0 0 0 0 0 0 0 0 0 0 0 0 0 0 0
0 0 0 0 0 0 0 0 0 0 0 0 0 0 -0 -0 -0 -0 -0 -0 -0 0
0 0 0 0 0 0 0 0 0 0 0 -0 -0 0 0 -0 -0 0 0 0 0 0
0 0 0 0 0 0 -0 -0 -0 -0 -0 0 0 0 0 0 0 0 0 0 0 0
0 0 0 0 -0 0 0 -0 -0 -0 -0 0 0 0 0 -0 0 0 0 0 0 0
0 0 -0 -0 -0 -0 -0 -0 -0 -0 -0 0 0 0 0 0 0 0 0 0 0 0
-0 -0 -0 -0 -0 -0 -0 0 -0 -0 -0 -0 0 0 0 0 0 0 0 0 0 0
-0 -0 0 0 0 0 0 -0 -0 0 0 -0 -0 -0 0 -0 -0 -0 -0 -0 -0 0
Wind_Speed_500mb
40 42 40 38 37 37 35 30 28 26 25 23 21 16 11 7 7 5 4 7 10 16
43 41 43 40 37 38 35 30 25 22 21 21 18 18 17 18 20 16 14 14 17 19
42 43 41 37 37 37 38 35 34 33 30 27 27 25 23 24 25 21 23 24 22 20
40 38 39 41 40 40 37 37 37 39 37 35 35 34 29 29 28 26 27 27 27 25
36 37 41 44 43 40 40 39 39 37 35 36 36 35 33 30 28 24 23 25 26 27
34 35 37 37 36 35 36 38 36 33 33 32 31 30 27 25 24 26 25 25 27 30
31 31 31 33 32 29 28 29 29 27 26 26 25 26 26 26 28 29 30 31 32 34
31 29 25 24 24 21 20 22 23 23 25 24 23 28 28 28 30 31 33 34 36 38
25 23 19 17 18 17 17 19 20 23 24 23 27 29 29 30 32 33 34 37 39 40
17 15 15 15 14 16 15 16 16 19 21 22 23 25 27 29 30 32 33 35 38 39
15 12 13 13 10 10 9 9 13 16 17 21 20 22 24 29 33 34 36 40 42 43
13 10 7 7 6 5 5 7 9 14 20 22 24 26 26 28 32 35 38 40 41 44
15 11 7 4 3 1 4 10 15 18 19 20 21 23 27 33 35 33 36 42 52 60
16 13 9 7 5 3 4 8 10 11 14 18 24 29 34 38 40 44 49 55 57 56
Wind_Direction_500mb
90 94 98 97 95 94 98 103 106 112 108 99 100 102 100 135 137 126 112 46 25 13
82 84 86 89 91 93 97 98 99 104 105 104 96 85 76 64 57 43 32 25 15 6
85 88 87 87 83 81 82 82 84 80 78 79 78 71 65 63 60 48 47 41 34 27
84 86 89 89 91 88 89 85 83 80 81 81 81 81 80 77 70 59 52 47 40 33
86 88 88 87 85 86 86 85 83 83 82 81 79 75 70 66 65 60 50 37 26 19
90 88 88 87 85 85 84 85 83 80 77 75 71 69 61 52 43 37 28 22 12 5
95 89 88 90 89 87 87 84 79 74 68 64 61 59 51 40 32 25 20 13 8 3
99 95 90 89 87 79 76 74 72 70 65 57 53 52 44 37 30 24 17 10 8 4
117 111 101 86 81 77 68 68 66 67 66 56 46 39 31 25 21 17 10 6 4 0
117 106 100 91 77 74 62 54 54 57 56 52 42 30 21 17 13 12 8 5 4 359
129 125 120 108 85 61 53 47 51 52 52 48 38 30 15 12 11 8 7 7 3 360
154 147 142 110 76 60 68 59 62 50 39 31 25 20 11 9 12 10 8 6 3 2
180 173 182 164 145 109 42 43 35 29 22 18 14 10 10 12 11 9 10 8 6 4
191 192 199 199 194 151 56 28 17 13 10 10 10 9 7 6 5 9 9 7 3 358
Wind_Speed_850mb
40 42 40 38 37 37 35 30 28 26 25 23 21 16 11 7 7 5 4 7 10 16
43 41 43 40 37 38 35 30 25 22 21 21 18 18 17 18 20 16 14 14 17 19
42 43 41 37 37 37 38 35 34 33 30 27 27 25 23 24 25 21 23 24 22 20
40 38 39 41 40 40 37 37 37 39 37 35 35 34 29 29 28 26 27 27 27 25
36 37 41 44 43 40 40 39 39 37 35 36 36 35 33 30 28 24 23 25 26 27
34 35 37 37 36 35 36 38 36 33 33 32 31 30 27 25 24 26 25 25 27 30
31 31 31 33 32 29 28 29 29 27 26 26 25 26 26 26 28 29 30 31 32 34
31 29 25 24 24 21 20 22 23 23 25 24 23 28 28 28 30 31 33 34 36 38
25 23 19 17 18 17 17 19 20 23 24 23 27 29 29 30 32 33 34 37 39 40
17 15 15 15 14 16 15 16 16 19 21 22 23 25 27 29 30 32 33 35 38 39
15 12 13 13 10 10 9 9 13 16 17 21 20 22 24 29 33 34 36 40 42 43
13 10 7 7 6 5 5 7 9 14 20 22 24 26 26 28 32 35 38 40 41 44
15 11 7 4 3 1 4 10 15 18 19 20 21 23 27 33 35 33 36 42 52 60
16 13 9 7 5 3 4 8 10 11 14 18 24 29 34 38 40 44 49 55 57 56
Wind_Direction_850mb
90 94 98 97 95 94 98 103 106 112 108 99 100 102 100 135 137 126 112 46 25 13
82 84 86 89 91 93 97 98 99 104 105 104 96 85 76 64 57 43 32 25 15 6
85 88 87 87 83 81 82 82 84 80 78 79 78 71 65 63 60 48 47 41 34 27
84 86 89 89 91 88 89 85 83 80 81 81 81 81 80 77 70 59 52 47 40 33
86 88 88 87 85 86 86 85 83 83 82 81 79 75 70 66 65 60 50 37 26 19
90 88 88 87 85 85 84 85 83 80 77 75 71 69 61 52 43 37 28 22 12 5
95 89 88 90 89 87 87 84 79 74 68 64 61 59 51 40 32 25 20 13 8 3
99 95 90 89 87 79 76 74 72 70 65 57 53 52 44 37 30 24 17 10 8 4
117 111 101 86 81 77 68 68 66 67 66 56 46 39 31 25 21 17 10 6 4 0
117 106 100 91 77 74 62 54 54 57 56 52 42 30 21 17 13 12 8 5 4 359
129 125 120 108 85 61 53 47 51 52 52 48 38 30 15 12 11 8 7 7 3 360
154 147 142 110 76 60 68 59 62 50 39 31 25 20 11 9 12 10 8 6 3 2
180 173 182 164 145 109 42 43 35 29 22 18 14 10 10 12 11 9 10 8 6 4
191 192 199 199 194 151 56 28 17 13 10 10 10 9 7 6 5 9 9 7 3 358